www.pogodaiklimat.ru
ПОГОДА в Анучино

Архив погоды в Анучино (Приморский край, Россия)

Время
(UTC), дата
15 9.06
18 9.06
21 9.06
00 10.06
03 10.06
06 10.06
09 10.06
12 10.06
18 10.06
21 10.06
00 11.06
03 11.06
06 11.06
09 11.06
12 11.06
15 11.06
18 11.06
21 11.06
00 12.06
03 12.06
06 12.06
09 12.06
12 12.06
15 12.06
18 12.06
21 12.06
00 13.06
03 13.06
06 13.06
09 13.06
12 13.06
15 13.06
18 13.06
21 13.06
00 14.06
03 14.06
06 14.06
09 14.06
12 14.06
15 14.06
18 14.06
21 14.06
00 15.06
03 15.06
06 15.06
09 15.06
12 15.06
15 15.06
18 15.06
21 15.06
00 16.06
03 16.06
06 16.06
09 16.06
Ветер
(напр.,м/с)
Видим. Явления Облачность Т
(С)
Тd
(С)
f
(%)
Тe
(С)
Тes
(С)
Комфортность P
(гПа)
Po
(гПа)
Тmin
(С)
Tmax
(С)
R
(мм)
R24
(мм)
S
(см)
З 1 50 км {ливн. дождь} 8/6 600 м
[Sc diur, vesp Ac trans]
+13.5 +12.7 95 +14 +14 1005.6 983.6
З 2 50 км {ливн. дождь} 6/6 200 м
[St]
+12.0 +11.6 97 +11 +11 1006.0 983.8
З 2 50 км 8/8 200 м
[St]
+11.7 +11.3 97 +10 +11 1006.9 984.7 +11.7 2
З 1 50 км 4/1 600 м
[Cu med, cong Ci fib]
+19.0 +14.5 75 +21 +33 комфорт 1005.9 984.3
З 3 50 км 8/5 600 м
[Cu med, cong Ci fib]
+24.0 +12.3 48 +26 +33 жарко 1004.1 982.8
З 3 50 км 4/4 600 м
[Cu med, cong]
+25.0 +9.6 38 +26 +32 жарко 1003.0 981.8
З 2 50 км 3/3 600 м
[Cu med, cong]
+24.3 +10.3 41 +25 +27 комфорт 1002.9 981.7 +25.1
ЮЗ 2 50 км 3/0
[Ci fib]
+16.1 +12.7 80 +16 +16 1005.2 983.3
ЮЗ 1 50 км 4/0
[Ci sp]
+11.2 +10.5 95 +11 +11 1006.7 984.4
З 1 50 км 8/0
[Ci sp]
+12.4 +11.0 91 +12 +14 1005.9 983.7 +10.6
ЮЗ 1 50 км 8/0
[Ci sp]
+21.5 +14.5 64 +24 +36 комфорт 1003.7 982.3
ЮЗ 3 50 км 9/0
[Ac trans Cs]
+27.4 +11.4 37 +28 +39 жарко 1002.1 981.1
З 2 50 км 9/6 600 м
[Sc Ac As]
+27.4 +12.5 40 +29 +31 жарко 1001.7 980.7
ЮЗ 2 50 км 10/0
[Ac trans Cs]
+26.0 +14.2 48 +28 +30 жарко 1000.2 979.2 +28.0
Ю 2 50 км 10/6 600 м
[Sc Ac As]
+21.7 +12.7 57 +24 +24 комфорт 1002.6 981.2
С 1 50 км в посл. час ливневой дождь {гроза} 10/10 600 м
[Sc diur, vesp]
+16.8 +15.6 93 +18 +18 1001.6 979.9
З 2 50 км {гроза, ливн. дождь} 4/4 300 м
[St]
+15.3 +14.8 97 +15 +15 1001.7 979.9
З 1 50 км 9/0
[Ac trans Cs]
+15.6 +14.7 94 +16 +17 1002.0 980.2 +14.9 4
ЮЗ 1 20 км слаб. ливневой дождь 10/10 600 м
[Cb cap]
+16.8 +16.0 95 +18 +18 1002.6 980.9
Ю 1 20 км слаб. ливневой дождь 10/10 600 м
[Cb cap]
+19.5 +17.3 87 +23 +23 комфорт 1002.2 980.7
Ю 1 50 км {ливн. дождь} 10/10 600 м
[Sc diur, vesp]
+21.2 +17.9 81 +25 +25 комфорт 1001.1 979.7
З 1 50 км 10/10 600 м
[Cu med, cong]
+20.5 +18.8 90 +25 +25 комфорт 1001.7 980.3 +22.5 4
штиль 0 50 км 10/10 600 м
[Cu med, cong]
+17.6 +16.9 96 +18 +18 1003.7 982.0
штиль 0 50 км 10/10 600 м
[Sc]
+17.0 +16.3 96 +17 +17 1004.6 982.8
штиль 0 50 км 10/10 600 м
[Sc]
+16.4 +15.7 96 +16 +16 1004.5 982.7
СВ 1 50 км 10/10 600 м
[Sc]
+15.9 +14.5 91 +17 +17 1006.7 984.8 +15.9
СВ 2 50 км 6/4 600 м
[Cu med, cong Ci fib]
+19.7 +14.1 70 +22 +29 комфорт 1006.4 984.8
С 1 50 км 8/6 600 м
[Cu med, cong Ci sp]
+22.9 +13.8 56 +26 +34 жарко 1005.0 983.7
СВ 2 50 км 6/3 600 м
[Cu hum Ci fib]
+25.1 +14.6 52 +28 +36 жарко 1004.0 982.8
В 1 50 км 8/3 600 м
[Cu med, cong Ac trans]
+23.5 +14.7 58 +26 +27 жарко 1004.5 983.2 +25.1
Ю 1 50 км 8/3 600 м
[Sc Ac trans]
+18.1 +16.0 88 +19 +19 1005.4 983.7
З 1 50 км 6/6 600 м
[Sc]
+15.5 +14.8 96 +16 +16 1005.4 983.5
ЮЗ 1 50 км 6/3 600 м
[Sc Ac trans]
+15.4 +14.1 92 +16 +16 1004.3 982.5
З 2 10 км слаб. ливневой дождь 10/10 600 м
[Cb cap]
+16.1 +14.0 87 +16 +16 1004.8 982.9 +14.5 0.0
Ю 1 50 км в посл. час ливневой дождь 10/4 600 м
[Sc diur, vesp Ac As]
+18.7 +14.9 79 +21 +23 комфорт 1004.6 983.0
ЮЗ 1 50 км {ливн. дождь} 10/8 600 м
[Sc diur, vesp Ac lent]
+19.0 +15.8 82 +21 +22 комфорт 1004.6 983.0
Ю 1 20 км слаб. ливневой дождь 10/10 600 м
[Cb cap]
+18.3 +16.4 89 +20 +20 1004.4 982.8
З 1 50 км {ливн. дождь} 10/10 600 м
[Sc diur, vesp]
+18.9 +15.3 80 +21 +21 комфорт 1004.2 982.6 +20.6 3
Ю 2 50 км {ливн. дождь} 10/6 600 м
[Sc Ac As]
+18.1 +15.1 83 +19 +19 1004.9 983.2
штиль 0 50 км {ливн. дождь} 10/10 600 м
[Sc diur, vesp]
+16.1 +15.4 96 +16 +16 1004.1 982.3
ЮЗ 1 10 км слаб. ливневой дождь 10/10 200 м
[Cb cap]
+16.4 +15.6 95 +17 +17 1003.7 981.9
З 3 10 км слаб. ливневой дождь 10/10 300 м
[Cb cap]
+16.1 +15.3 95 +16 +16 1003.8 982.0 +15.8 3
Ю 1 50 км {ливн. дождь} 10/10 600 м
[Sc diur, vesp]
+17.6 +15.8 89 +19 +19 1003.3 981.7
ЮЗ 1 50 км 10/10 600 м
[Sc]
+21.1 +16.5 75 +25 +25 комфорт 1002.2 980.8
ЮЗ 2 50 км 10/6 600 м
[Sc Ac As]
+22.6 +16.7 69 +27 +29 душно 1000.7 979.4
Ю 2 50 км 10/4 600 м
[Cu med, cong Cs]
+22.7 +15.5 64 +27 +28 душно 1000.1 978.9 +23.7 0.7
ЮЗ 1 50 км 10/10 600 м
[Sc]
+19.1 +15.3 79 +22 +22 комфорт 1001.9 980.4
ЮЗ 2 50 км 10/0
[Ac trans Cs]
+15.7 +14.4 92 +16 +16 1001.8 980.0
штиль 0 50 км 10/10 300 м
[St]
+14.6 +13.8 95 +14 +14 1000.7 978.9
З 1 50 км 10/10 300 м
[St]
+15.5 +14.6 94 +16 +16 1000.2 978.5 +14.6
З 2 50 км 10/10 600 м
[Sc]
+17.4 +13.8 79 +18 +18 999.5 977.9
З 3 50 км 10/8 600 м
[Sc Ac trans]
+21.4 +13.0 59 +24 +25 комфорт 997.9 976.6
З 2 50 км 8/5 600 м
[Cu med, cong Ci fib]
+22.9 +13.2 54 +26 +32 жарко 996.7 975.5
ЮЗ 1 50 км в посл. час гроза {ливн. дождь} 10/10 600 м
[Cu med, cong]
+17.0 +15.5 91 +18 +18 998.3 976.7 +22.9 4
Местоположение метеостанции Анучино (Приморский край, Россия): широта 43.97 долгота 133.00 высота над уровнем моря 188 м.
В архиве по умолчанию представлена погода в Анучино за последнюю неделю. Архивные данные за месяц целиком и за предыдущие месяцы, начиная с января 2011 года, Вы можете получить, выбрав интересующий диапазон дат из раскрывающегося списка и нажав кнопку "Найти!".
*Определитесь, кто Вы:
Внимание! Время в таблицах - всемирное. Для получения местного времени необходимо прибавить поправку, которая равна 10 ч.
Некоторые строки с данными для отдельных станций могут быть выделены курсивом. Это означает, что фактические данные отсутствуют по различным причинам, а приведенные значения являются расчетными модельными данными для данного пункта наблюдений.
Смотрите также архив погоды в соседних городах и на ближайших метеорологических станциях:
Партнеры нашего сайта:      
Пояснения к столбцам:
  • Ветер - указаны скорость ветра в м/с - средняя за 10 мин, порывы в срок и между сроками (в фигурных скобках) и направление, откуда дует ветер: С - северный,
  • СВ - северо-восточный, В - восточный, ЮВ - юго-восточный, Ю - южный, ЮЗ - юго-западный, З - западный, СЗ - северо-западный.
  • Видимость - горизонтальная дальность видимости в метрах или километрах. При видимости от 1 до 10 км при отсутствии осадков обычно наблюдается дымка, при ухудшении видимости до 1 км и менее - туман. В сухую погоду видимость может ухудшаться дымом, пылью или мглою.
  • Явления - указаны атмосферные явления, наблюдавшиеся в срок или в последний час перед сроком; фигурными скобками обозначены явления, наблюдавшиеся между сроками (за 1-3 часа до срока); квадратными скобками обозначены град или гололедные отложения с указанием их диаметра в мм.
  • Облачность - указаны через наклонную черту общая и нижняя облачность в баллах и высота нижней границы облаков в метрах; квадратными скобками обозначены формы облаков: Ci - перистые, Cs - перисто-слоистые, Cc - перисто-кучевые, Ac - высококучевые, As - высокослоистые, Sc - слоисто-кучевые, Ns - слоисто-дождевые, Cu - кучевые, Cb - кучево-дождевые. Подробнее классификацию облаков см. в Атласе облаков (PDF).
  • T - Температура воздуха - температура, измеренная на высоте 2 м над землей.
  • Td - Температура точки росы - температура, при понижении до которой содержащийся в воздухе водяной пар достигнет насыщения.
  • f - Относительная влажность воздуха - влажноcть воздуха, измеренная на высоте 2 м над землей.
  • Te - Эффективная температура - температура, которую ощущает одетый по сезону человек в тени. Характеристика душности погоды. При расчете учитывается влияние влажности воздуха и скорости ветра на теплоощущения человека.
  • Tes - Эффективная температура на солнце - температура, которую ощущает человек, с поправкой на солнечный нагрев. Характеристика знойности погоды. Зависит от высоты солнца над горизонтом, облачности и скорости ветра. Ночью, в пасмурную погоду, а также при ветре 12 м/с и более поправка равна нулю.
  • P - Атмосферное давление - приведенное к уровню моря атмосферное давление.
  • Po - Атмосферное давление - измеренное на уровне метеостанции атмосферное давление.
  • Tmin - Минимальная температура - минимум температуры воздуха на высоте 2 м над землей.
  • Tmax - Максимальная температура - максимум температуры воздуха на высоте 2 м над землей.
  • R - Количество осадков - Количество выпавших осадков за период времени, мм. При наведении курсора мыши на число - период времени, за который выпало указанное количество осадков.
  • R24 - Количество осадков - Количество выпавших осадков за 24 часа, мм.
  • S - Снежный покров - Высота снежного покрова, см. При наведении курсора мыши на число - состояние снежного покрова и степень покрытия местности в баллах.